Location: ????????
(60.4333°N, 46.4710°E)
Time: 19:02:15
(UTC+00:00)

Cosmos 1980 Rocket - Pass Details

Date: 25 November 2020
Orbit: 829 x 850 km, 71.0° (Epoch: 16 January)

Event Time Altitude Azimuth Distance (km) Brightness Sun altitude
Rises 14:00:53 0° 269° (W) 3,375 6.8 -13.3°
Reaches altitude 10° 14:03:35 10° 280° (W) 2,443 5.6 -13.6°
Maximum altitude 14:08:35 32° 343° (NNW) 1,397 3.3 -14.2°
Enters shadow 14:12:26 15° 39° (NE) 2,086 3.8 -14.6°
